Location: *
(43.9905°S, 176.4941°W)
Time: 00:43:29
(UTC+00:00)

CENTAUR R/B - Pass Details

Date: 08 December 2019
Orbit: 773 x 1415 km, 63.4° (Epoch: 18 January)

Event Time Altitude Azimuth Distance (km) Brightness Sun altitude
Rises 08:29:17 0° 314° (NW) 4,353 5.9 -10.6°
Reaches altitude 10° 08:32:20 10° 311° (NW) 3,319 5.3 -11.0°
Maximum altitude 08:40:18 64° 230° (SW) 1,296 3.4 -11.9°
Drops below altitude 10° 08:47:11 10° 148° (SSE) 2,880 5.2 -12.7°
Sets 08:49:40 0° 144° (SE) 3,748 5.8 -13.0°
